Location: Baia Mare
(47.6567°N, 23.5850°E)
Time: 13:54:10
(UTC+03:00)

ISS - Pass Details

Date: 27 July 2019
Orbit: 409 x 418 km, 51.6° (Epoch: 21 July)

Event Time Altitude Azimuth Distance (km) Brightness Sun altitude
Rises 23:56:46 0° 293° (WNW) 2,355 0.8 -19.7°
Reaches altitude 10° 23:58:52 10° 294° (WNW) 1,488 -0.3 -19.8°
Enters shadow 00:02:12 85° 15° (NNE) 419 -3.9 -20.0°
